Date String (YYYY-MM-DD hh:mm:ss) UTC,Instrument flags,Ambient pressure (hPa),Sample flow (lpm),Bypass flow (lpm),Sample temperature (°C),Ambient temperature (°C),ASC tube jacket temperature (°C),LED temperature (°C),Box temperature (°C),Sample RH (%),Span deviation,Mass concentration (μg/m³),Mass concentration (μg/m³),Mass concentration (μg/m³)
DateTimeUTC,F1_M11,P_M11,Q1_M11,Q2_M11,T1_M11,T2_M11,T3_M11,T4_M11,T5_M11,U1_M11,ZSPAN_M11,X0_M11,X2_M11,X1_M11
2021-10-30 10:00:00,,0823.7,5.00,0.00,28.5,27.4,00.0,37.6,30.2,07.7,0000.0,0004.63,0000.44,0000.27
2021-10-30 10:01:00,,0823.7,5.01,0.00,28.5,27.4,00.0,37.6,30.2,07.7,0000.0,0004.68,0000.44,0000.27
2021-10-30 10:02:00,,0823.7,5.00,0.00,28.5,27.4,00.0,37.6,30.2,07.7,0000.0,0004.81,0000.47,0000.28
2021-10-30 10:03:00,,0823.7,5.01,0.00,28.5,27.5,00.0,37.6,30.2,07.8,0000.0,0004.84,0000.48,0000.29
2021-10-30 10:04:00,,0823.7,4.99,0.00,28.5,27.5,00.0,37.6,30.2,07.7,0000.0,0004.77,0000.47,0000.29
2021-10-30 10:05:00,,0823.7,5.01,0.00,28.5,27.5,00.0,37.6,30.2,07.7,0000.0,0004.69,0000.46,0000.30
2021-10-30 10:06:00,,0823.7,5.00,0.00,28.5,27.4,00.0,37.6,30.1,07.7,0000.0,0004.39,0000.44,0000.30
2021-10-30 10:07:00,,0823.7,5.01,0.00,28.5,27.5,00.0,37.6,30.2,07.8,0000.0,0004.02,0000.43,0000.30
2021-10-30 10:08:00,,0823.7,5.01,0.00,28.5,27.5,00.0,37.6,30.2,07.8,0000.0,0002.25,0000.40,0000.30
2021-10-30 10:09:00,,0823.7,4.99,0.00,28.5,27.5,00.0,37.6,30.2,07.9,0000.0,0001.67,0000.42,0000.31
2021-10-30 10:10:00,,0823.7,5.00,0.00,28.5,27.5,00.0,37.6,30.2,07.9,0000.0,0001.10,0000.41,0000.31
2021-10-30 10:11:00,,0823.7,4.99,0.00,28.5,27.5,00.0,37.6,30.2,08.0,0000.0,0000.73,0000.41,0000.32
2021-10-30 10:12:00,,0823.7,5.01,0.00,28.5,27.5,00.0,37.6,30.2,08.1,0000.0,0000.71,0000.41,0000.32
2021-10-30 10:13:00,,0823.7,5.00,0.00,28.5,27.5,00.0,37.6,30.2,08.2,0000.0,0000.60,0000.39,0000.32
2021-10-30 10:14:00,,0823.8,4.99,0.00,28.5,27.5,00.0,37.6,30.2,08.4,0000.0,0000.57,0000.38,0000.32
2021-10-30 10:15:00,,0823.8,5.01,0.00,28.5,27.5,00.0,37.6,30.2,08.4,0000.0,0000.51,0000.36,0000.33
2021-10-30 10:16:00,,0823.8,4.98,0.00,28.5,27.5,00.0,37.5,30.1,08.5,0000.0,0000.49,0000.36,0000.33
2021-10-30 10:17:00,,0823.8,5.01,0.00,28.5,27.4,00.0,37.5,30.1,08.6,0000.0,0002.02,0000.37,0000.34
2021-10-30 10:18:00,,0823.8,5.00,0.00,28.5,27.4,00.0,37.5,30.2,08.6,0000.0,0002.35,0000.39,0000.36
2021-10-30 10:19:00,,0823.8,5.00,0.00,28.5,27.4,00.0,37.6,30.2,08.6,0000.0,0002.37,0000.41,0000.38
2021-10-30 10:20:00,,0823.7,4.97,0.00,28.5,27.4,00.0,37.5,30.2,08.6,0000.0,0002.43,0000.44,0000.39
2021-10-30 10:21:00,,0823.8,5.02,0.00,28.5,27.4,00.0,37.6,30.2,08.7,0000.0,0002.45,0000.46,0000.41
2021-10-30 10:22:00,,0823.7,5.01,0.00,28.5,27.4,00.0,37.6,30.2,08.7,0000.0,0002.48,0000.48,0000.42
2021-10-30 10:23:00,,0823.7,5.00,0.00,28.5,27.4,00.0,37.5,30.2,08.8,0000.0,0002.51,0000.50,0000.44
2021-10-30 10:24:00,,0823.7,5.00,0.00,28.5,27.5,00.0,37.5,30.2,08.8,0000.0,0002.52,0000.51,0000.45
2021-10-30 10:25:00,,0823.8,4.99,0.00,28.5,27.5,00.0,37.5,30.2,08.8,0000.0,0002.64,0000.53,0000.46
2021-10-30 10:26:00,,0823.7,5.01,0.00,28.5,27.5,00.0,37.5,30.2,08.9,0000.0,0002.71,0000.55,0000.47
2021-10-30 10:27:00,,0823.7,5.00,0.00,28.4,27.4,00.0,37.5,30.2,08.9,0000.0,0002.76,0000.58,0000.48
2021-10-30 10:28:00,,0823.7,4.99,0.00,28.5,27.5,00.0,37.5,30.2,08.9,0000.0,0001.66,0000.60,0000.48
2021-10-30 10:29:00,,0823.8,4.99,0.00,28.5,27.5,00.0,37.5,30.2,08.9,0000.0,0001.48,0000.61,0000.48
2021-10-30 10:30:00,,0823.8,5.01,0.00,28.4,27.5,00.0,37.5,30.2,08.9,0000.0,0002.20,0000.62,0000.48
2021-10-30 10:31:00,,0823.8,5.01,0.00,28.5,27.5,00.0,37.5,30.2,08.9,0000.0,0003.26,0000.61,0000.48
2021-10-30 10:32:00,,0823.8,4.99,0.00,28.4,27.5,00.0,37.5,30.2,08.9,0000.0,0003.27,0000.61,0000.48
2021-10-30 10:33:00,,0823.8,5.00,0.00,28.5,27.5,00.0,37.5,30.2,09.0,0000.0,0003.35,0000.61,0000.48
2021-10-30 10:34:00,,0823.8,5.00,0.00,28.5,27.5,00.0,37.5,30.2,09.0,0000.0,0003.29,0000.59,0000.48
2021-10-30 10:35:00,,0823.8,5.00,0.00,28.4,27.5,00.0,37.5,30.2,09.0,0000.0,0003.31,0000.60,0000.48
2021-10-30 10:36:00,,0823.8,5.00,0.00,28.4,27.5,00.0,37.5,30.2,09.0,0000.0,0003.86,0000.63,0000.48
2021-10-30 10:37:00,,0823.8,5.00,0.00,28.4,27.5,00.0,37.5,30.2,09.0,0000.0,0005.26,0000.61,0000.48
2021-10-30 10:38:00,,0823.8,5.01,0.00,28.4,27.5,00.0,37.5,30.2,09.0,0000.0,0005.24,0000.60,0000.48
2021-10-30 10:39:00,,0823.8,4.99,0.00,28.4,27.5,00.0,37.5,30.1,09.0,0000.0,0005.14,0000.61,0000.48
2021-10-30 10:40:00,,0823.8,5.00,0.00,28.4,27.5,00.0,37.5,30.2,09.1,0000.0,0004.78,0000.59,0000.48
2021-10-30 10:41:00,,0823.9,5.00,0.00,28.4,27.5,00.0,37.5,30.2,09.1,0000.0,0004.40,0000.60,0000.48
2021-10-30 10:42:00,,0823.8,5.00,0.00,28.4,27.5,00.0,37.5,30.2,09.1,0000.0,0003.01,0000.61,0000.48
2021-10-30 10:43:00,,0823.8,5.00,0.00,28.4,27.5,00.0,37.5,30.2,09.1,0000.0,0003.02,0000.60,0000.48
2021-10-30 10:44:00,,0823.8,5.00,0.00,28.4,27.5,00.0,37.5,30.2,09.1,0000.0,0002.93,0000.59,0000.47
2021-10-30 10:45:00,,0823.8,5.00,0.00,28.4,27.5,00.0,37.5,30.2,09.0,0000.0,0002.93,0000.60,0000.48
2021-10-30 10:46:00,,0823.8,4.98,0.00,28.4,27.5,00.0,37.5,30.2,09.1,0000.0,0002.92,0000.58,0000.48
2021-10-30 10:47:00,,0823.8,5.01,0.00,28.4,27.6,00.0,37.5,30.2,09.0,0000.0,0002.49,0000.57,0000.47
2021-10-30 10:48:00,,0823.8,4.99,0.00,28.5,27.6,00.0,37.5,30.2,09.0,0000.0,0000.89,0000.58,0000.47
2021-10-30 10:49:00,,0823.8,4.99,0.00,28.5,27.6,00.0,37.5,30.3,09.0,0000.0,0000.89,0000.57,0000.46
2021-10-30 10:50:00,,0823.8,5.00,0.00,28.5,27.6,00.0,37.5,30.3,09.0,0000.0,0000.85,0000.55,0000.46
2021-10-30 10:51:00,,0823.8,5.00,0.00,28.5,27.6,00.0,37.5,30.3,09.0,0000.0,0000.85,0000.55,0000.46
2021-10-30 10:52:00,,0823.8,4.99,0.00,28.5,27.6,00.0,37.5,30.3,09.0,0000.0,0000.80,0000.54,0000.46
2021-10-30 10:53:00,,0823.8,5.01,0.00,28.5,27.6,00.0,37.5,30.3,09.0,0000.0,0000.82,0000.55,0000.45
2021-10-30 10:54:00,,0823.8,5.01,0.00,28.5,27.6,00.0,37.5,30.3,08.9,0000.0,0000.79,0000.54,0000.45
2021-10-30 10:55:00,,0823.9,5.00,0.00,28.5,27.6,00.0,37.5,30.3,08.9,0000.0,0000.78,0000.54,0000.45
2021-10-30 10:56:00,,0823.8,5.00,0.00,28.5,27.6,00.0,37.5,30.3,08.9,0000.0,0001.52,0000.57,0000.44
2021-10-30 10:57:00,,0823.8,5.00,0.00,28.5,27.6,00.0,37.5,30.4,08.9,0000.0,0001.59,0000.56,0000.44
2021-10-30 10:58:00,,0823.9,5.00,0.00,28.5,27.7,00.0,37.5,30.4,08.9,0000.0,0001.54,0000.54,0000.43
2021-10-30 10:59:00,,0823.8,5.02,0.00,28.5,27.7,00.0,37.5,30.4,08.9,0000.0,0001.53,0000.52,0000.43
